[[{"header":{"parameterUnit":"m.s-1","parameterCategory":2,"la1":30.2991,"la2":30.254,"lo1":-89.0895,"lo2":-89.0444,"dy":0.0017,"dx":0.0017,"nx":28,"ny":28,"refTime":"2025-07-20T21:00:00:Z","depth":"0","parameterNumber":2,"parameterNumberName":"U-component_of_CURRENTS"},"data":[0,0,0,0,0,0,0,0,0,0,0,0,0,0,0,0,0,0,0,0,0,0,0,0,0,0,0,0,0,0,0,0,0,0,0,0,0,0,0,0,0,0,0,0,0,0,0,0,0,0,0,0,0,0,0,0,0,0,0.3056,0.3057,0,0.314,0.3141,0.3143,0.3122,0.312,0.3119,0.3117,0.3152,0.3155,0.3157,0,0,0,0,0,0,0,0,0,0,0,0,0,0.3026,0.3026,0.3056,0.3057,0.3058,0.314,0.3142,0.3143,0.3123,0.312,0.3118,0.3116,0.3151,0.3154,0.3157,0,0,0,0,0,0,0,0,0,0,0,0,0,0.3069,0.3026,0.3056,0.3056,0.3057,0.314,0.3142,0.3143,0.3123,0.312,0.3118,0.3115,0.315,0.3154,0.3158,0.3237,0,0,0.317,0.3172,0,0,0,0,0,0,0,0,0.3066,0.307,0.3055,0.3056,0.3057,0.3116,0.3144,0.3172,0.3124,0.31,0.3117,0.3114,0.3136,0.3141,0.3167,0.3239,0.324,0.317,0.3173,0.3174,0.3176,0,0,0,0,0,0,0,0.3063,0.3068,0.3092,0.3056,0.3057,0.3102,0.3104,0.315,0.3133,0.3102,0.31,0.3107,0.3136,0.3163,0.3167,0.3241,0.317,0.3174,0.3176,0.3178,0.3362,0.3364,0,0,0,0,0,0,0.3044,0.3064,0.3089,0.3094,0.3053,0.3104,0.3107,0.3102,0.3134,0.3136,0.3109,0.3106,0.3158,0.3163,0.3168,0.3239,0.3174,0.3178,0.318,0.3359,0.3362,0.3365,0,0,0,0,0,0,0.3043,0.3045,0.3085,0.308,0.3088,0.3106,0.3102,0.3105,0.3122,0.3139,0.314,0.3121,0.3156,0.3163,0.3205,0.324,0.318,0.3183,0.3356,0.336,0.3364,0.3396,0,0,0,0,0,0,0.3041,0.3044,0.3045,0.3078,0.3087,0.3124,0.3104,0.3108,0.313,0.3126,0.3151,0.3152,0.3154,0.32,0.3209,0.3245,0.3187,0.3353,0.3358,0.3362,0.3392,0.34,0.3408,0,0,0,0,0,0.304,0.3046,0.3044,0.3048,0.3084,0.3125,0.3135,0.3141,0.3133,0.3146,0.3165,0.315,0.3236,0.3205,0.3216,0.3253,0.3351,0.3357,0.3362,0.3388,0.3398,0.3407,0,0,0,0,0,0,0.3035,0.3045,0.3044,0.3052,0.3082,0.312,0.3138,0.3149,0.318,0.3174,0.3184,0.3188,0.3243,0.3252,0.3217,0.3323,0.3292,0.33,0.3308,0.3319,0.3326,0.334,0.319,0,0,0,0,0,0.3035,0.3038,0.3062,0.3072,0.3084,0.3116,0.3137,0.3144,0.3173,0.3183,0.3203,0.3235,0.3284,0.3298,0.3339,0.3397,0.341,0.3431,0.3439,0.3445,0.3466,0.3533,0.3549,0.3384,0.3383,0.3383,0,0,0.3036,0.3044,0.3046,0.3072,0.3095,0.3129,0.3121,0.3152,0.3188,0.3186,0.3237,0.3268,0.3308,0.337,0.3395,0.3373,0.3492,0.3452,0.3457,0.3475,0.3541,0.3557,0.3571,0.3387,0.3387,0.3386,0,0,0.3043,0.3046,0.3052,0.3081,0.3113,0.3141,0.3148,0.319,0.321,0.327,0.3283,0.3336,0.3397,0.3438,0.3466,0.3552,0.3538,0.3559,0.3604,0.3668,0.3681,0.3694,0.3693,0.3706,0.3555,0.3555,0.3555,0,0.3045,0.305,0.3066,0.309,0.3115,0.3145,0.3172,0.3217,0.3269,0.3309,0.3284,0.3418,0.3438,0.3539,0.3561,0.357,0.3581,0.3555,0.3676,0.3689,0.3701,0.3698,0.3711,0.3558,0.3557,0.3557,0.3557,0,0.306,0.3071,0.3082,0.3116,0.3155,0.3183,0.3238,0.3284,0.3313,0.3364,0.3462,0.3502,0.3582,0.3597,0.3603,0.371,0.3679,0.368,0.3644,0.372,0.3711,0.3724,0.3561,0.356,0.3559,0.3559,0,0,0.3033,0.3079,0.3081,0.3106,0.3167,0.3204,0.3275,0.3357,0.3426,0.348,0.3573,0.3655,0.3685,0.3722,0.3741,0.3789,0.3863,0.3769,0.3771,0.3753,0.3962,0.3756,0.3749,0.3883,0.3886,0.3889,0.3907,0,0.3034,0.3069,0.31,0.3158,0.3183,0.3247,0.3323,0.3412,0.3485,0.3587,0.3655,0.3751,0.3732,0.3774,0.3826,0.3872,0.3906,0.3855,0.3906,0.3907,0.3703,0.3762,0.3608,0.3596,0.3919,0.3922,0.3923,0,0.3027,0.3055,0.309,0.3182,0.3203,0.3254,0.3384,0.3462,0.3616,0.3676,0.3781,0.3841,0.3944,0.3908,0.401,0.3977,0.398,0.3991,0.3992,0.3804,0.3726,0.3584,0.3607,0.3554,0.3943,0.3941,0.394,0,0.2986,0.3051,0.3076,0.3104,0.3213,0.3261,0.3338,0.3487,0.3574,0.3743,0.3814,0.3945,0.3998,0.4061,0.4068,0.406,0.4147,0.4138,0.3949,0.3932,0.3814,0.378,0.3783,0.4213,0.4213,0.4213,0.4213,0,0.2965,0.2991,0.3059,0.3079,0.3162,0.3247,0.3363,0.3469,0.362,0.372,0.3856,0.3928,0.4042,0.4094,0.4108,0.4044,0.4178,0.3966,0.3938,0.3812,0.378,0.3736,0.3734,0.4213,0.4213,0.4213,0.4213,0,0.2915,0.2948,0.2997,0.3098,0.3139,0.3206,0.3364,0.3451,0.3595,0.3721,0.3774,0.3934,0.3972,0.4033,0.4109,0.4049,0.3922,0.3986,0.3786,0.3732,0.3452,0.3456,0.3261,0.3185,0.3783,0.3778,0.3774,0,0.289,0.2899,0.2998,0.304,0.3083,0.319,0.3267,0.3426,0.3507,0.3693,0.3737,0.3828,0.384,0.3856,0.3803,0.3763,0.3727,0.3573,0.3526,0.3413,0.3402,0.3276,0.3221,0.3385,0.3378,0.3373,0.3368,0,0.2861,0.2888,0.2938,0.3007,0.3076,0.3152,0.3257,0.3305,0.3465,0.353,0.358,0.3604,0.3613,0.3493,0.3437,0.3405,0.3392,0.3445,0.3434,0.3165,0.2933,0.2852,0.3363,0.3318,0.3323,0.3327,0.3329,0.3331,0.2848,0.2869,0.2921,0.2978,0.3041,0.3058,0.3052,0.3132,0.3174,0.3196,0.333,0.3272,0.3279,0.3159,0.3106,0.2934,0.2969,0.2855,0.2892,0.2789,0.2638,0.2973,0.282,0.2822,0.2824,0.2825,0.2827,0,0.2814,0.2835,0.289,0.2916,0.2901,0.2968,0.2995,0.2926,0.2849,0.2923,0.2898,0.285,0.2733,0.2733,0.2596,0.246,0.2385,0.24,0.2288,0.2284,0.2693,0.2601,0.2264,0.2264,0.2264,0.2264,0.2264,0.2264,0.2806,0.2808,0.2812,0.2749,0.2747,0.2637,0.259,0.2503,0.2494,0.2381,0.2334,0.2386,0.2483,0.242,0.2262,0.2197,0.2098,0.1905,0.1976,0.2382,0.2431,0.2478,0.2392,0.2018,0.2017,0.1464,0.146,0.1457]},{"header":{"parameterUnit":"m.s-1","parameterCategory":2,"la1":30.2991,"la2":30.254,"lo1":-89.0895,"lo2":-89.0444,"dy":0.0017,"dx":0.0017,"nx":28,"ny":28,"refTime":"2025-07-20T21:00:00:Z","depth":"0","parameterNumber":3,"parameterNumberName":"V-component_of_CURRENTS"},"data":[0,0,0,0,0,0,0,0,0,0,0,0,0,0,0,0,0,0,0,0,0,0,0,0,0,0,0,0,0,0,0,0,0,0,0,0,0,0,0,0,0,0,0,0,0,0,0,0,0,0,0,0,0,0,0,0,0,0,0.035,0.035,0,0.0365,0.0365,0.0366,0.0348,0.0348,0.0347,0.0346,0.0345,0.0346,0.0346,0,0,0,0,0,0,0,0,0,0,0,0,0,0.0325,0.0326,0.035,0.035,0.035,0.0365,0.0365,0.0366,0.0348,0.0348,0.0347,0.0346,0.0345,0.0346,0.0346,0,0,0,0,0,0,0,0,0,0,0,0,0,0.0339,0.0326,0.035,0.0343,0.0342,0.0365,0.0365,0.0366,0.0349,0.0348,0.0346,0.0345,0.0345,0.0346,0.0347,0.0376,0,0,0.035,0.035,0,0,0,0,0,0,0,0,0.0338,0.034,0.0344,0.0343,0.0343,0.0353,0.0356,0.0368,0.0349,0.0347,0.0346,0.0345,0.0346,0.0347,0.0354,0.0375,0.0375,0.035,0.035,0.0351,0.0351,0,0,0,0,0,0,0,0.0337,0.0339,0.0357,0.0344,0.0343,0.0345,0.0346,0.0359,0.0354,0.0348,0.0346,0.0346,0.0346,0.0353,0.0354,0.0375,0.035,0.0351,0.0351,0.0352,0.0409,0.041,0,0,0,0,0,0,0.0334,0.0339,0.0357,0.0358,0.0336,0.0346,0.0347,0.0352,0.0354,0.0353,0.0347,0.0345,0.0352,0.0353,0.0354,0.04,0.0351,0.0352,0.0352,0.0408,0.0409,0.041,0,0,0,0,0,0,0.0333,0.0335,0.0356,0.0347,0.035,0.0347,0.0353,0.0352,0.036,0.0353,0.0352,0.0354,0.0351,0.0352,0.0368,0.0399,0.0352,0.0353,0.0407,0.0408,0.041,0.0483,0,0,0,0,0,0,0.0332,0.0335,0.0342,0.0347,0.035,0.0377,0.0354,0.0354,0.0361,0.0359,0.036,0.0358,0.0351,0.0367,0.0369,0.0399,0.0354,0.0406,0.0408,0.0409,0.048,0.0487,0.0493,0,0,0,0,0,0.0332,0.0347,0.0342,0.0345,0.0358,0.0378,0.0381,0.0376,0.0362,0.0376,0.0371,0.0358,0.0379,0.0369,0.0372,0.0402,0.0405,0.0407,0.0409,0.0477,0.0486,0.0493,0,0,0,0,0,0,0.034,0.0346,0.0342,0.0358,0.0369,0.0375,0.0386,0.0382,0.0391,0.0384,0.0374,0.0374,0.0399,0.0389,0.0377,0.0421,0.0389,0.0391,0.0439,0.0448,0.0454,0.0475,0.0355,0,0,0,0,0,0.0345,0.0358,0.0364,0.0379,0.0384,0.0386,0.0394,0.0391,0.0396,0.0399,0.04,0.04,0.0412,0.0418,0.0424,0.0454,0.0439,0.0472,0.0479,0.0485,0.0502,0.0509,0.0518,0.0417,0.0417,0.0417,0,0,0.0351,0.0357,0.0364,0.0382,0.0388,0.0415,0.0389,0.0404,0.0431,0.0399,0.0434,0.0426,0.0424,0.0454,0.0465,0.0449,0.0501,0.0487,0.0493,0.0507,0.0512,0.0522,0.0531,0.0418,0.0418,0.0418,0,0,0.0377,0.0377,0.0399,0.0415,0.0428,0.0435,0.0442,0.0453,0.046,0.0489,0.0473,0.0486,0.0501,0.0512,0.0518,0.0567,0.0536,0.0561,0.0618,0.0624,0.0633,0.0641,0.0617,0.0622,0.0566,0.0566,0.0566,0,0.0385,0.0415,0.041,0.044,0.0462,0.0448,0.0486,0.0498,0.0514,0.0536,0.0507,0.0548,0.0536,0.0589,0.0597,0.0586,0.057,0.0589,0.0635,0.0642,0.0648,0.0623,0.0627,0.057,0.0569,0.0569,0.0568,0,0.0433,0.0458,0.0474,0.0511,0.0534,0.0563,0.0578,0.0601,0.0602,0.0617,0.0661,0.0647,0.0676,0.0667,0.0646,0.0695,0.066,0.0642,0.0617,0.0663,0.0632,0.0636,0.0575,0.0574,0.0573,0.0572,0,0,0.0452,0.05,0.0506,0.0544,0.0575,0.0607,0.065,0.07,0.0751,0.0747,0.0816,0.0813,0.0804,0.0809,0.0786,0.0782,0.0796,0.0732,0.073,0.0714,0.0788,0.0725,0.0721,0.0783,0.0785,0.0786,0.0742,0,0.0495,0.0565,0.0578,0.0658,0.0699,0.0713,0.0769,0.081,0.0835,0.0896,0.0882,0.0933,0.086,0.0881,0.0866,0.0824,0.0811,0.0808,0.0741,0.0739,0.0683,0.0727,0.0741,0.0701,0.0745,0.0745,0.0745,0,0.0542,0.0587,0.0664,0.0751,0.0773,0.082,0.0916,0.0967,0.1032,0.1055,0.1085,0.1077,0.1086,0.1014,0.0958,0.0957,0.0883,0.083,0.0827,0.075,0.0684,0.0664,0.0705,0.0644,0.075,0.075,0.075,0,0.0572,0.0652,0.072,0.0748,0.0838,0.0885,0.094,0.1016,0.1095,0.1164,0.1225,0.1215,0.1233,0.1146,0.1019,0.0998,0.0941,0.09,0.077,0.0763,0.0756,0.0746,0.0739,0.0865,0.0865,0.0865,0.0865,0,0.0621,0.0678,0.0742,0.0786,0.0899,0.0939,0.107,0.112,0.1224,0.1339,0.1315,0.1385,0.1267,0.1215,0.1076,0.0932,0.0983,0.0794,0.076,0.0777,0.077,0.0698,0.0659,0.0863,0.0864,0.0864,0.0864,0,0.065,0.0684,0.0777,0.0875,0.0917,0.1002,0.1159,0.1265,0.1334,0.1482,0.1514,0.1529,0.1451,0.1304,0.1164,0.1017,0.0834,0.081,0.0818,0.0787,0.0594,0.0557,0.0497,0.0476,0.0669,0.0667,0.0666,0,0.0673,0.0718,0.0841,0.0917,0.0968,0.1098,0.1208,0.1315,0.1436,0.1568,0.1653,0.1623,0.1607,0.1364,0.1117,0.0873,0.0796,0.0718,0.068,0.06,0.0535,0.051,0.0496,0.069,0.0689,0.0688,0.0688,0,0.0728,0.0763,0.0847,0.0994,0.1114,0.1259,0.1414,0.1522,0.1659,0.1757,0.1853,0.1838,0.1619,0.1386,0.1052,0.0878,0.0688,0.0689,0.0631,0.0576,0.0529,0.0487,0.0677,0.068,0.0681,0.0681,0.0682,0.0682,0.0774,0.084,0.0948,0.1093,0.1231,0.1399,0.1516,0.1667,0.183,0.1969,0.1965,0.1951,0.1658,0.1204,0.0965,0.0599,0.0609,0.0495,0.0461,0.0446,0.0422,0.0571,0.0518,0.0517,0.0517,0.0517,0.0517,0,0.0834,0.0917,0.1049,0.1219,0.1363,0.1429,0.1645,0.1748,0.1903,0.2025,0.2067,0.1935,0.1555,0.1191,0.0693,0.044,0.0371,0.0322,0.0325,0.0324,0.0486,0.0484,0.0393,0.0393,0.0393,0.0393,0.0393,0.0393,0.0873,0.0994,0.1059,0.1291,0.1413,0.1591,0.1699,0.1838,0.1952,0.2064,0.2085,0.2093,0.1864,0.098,0.0449,0.0323,0.0212,0.0142,0.0096,0.0234,0.0249,0.0263,0.0254,0.0116,0.0116,-0.0017,-0.0019,-0.002]}],[{"header":{"parameterUnit":"m.s-1","parameterCategory":2,"la1":30.2991,"la2":30.254,"lo1":-89.0895,"lo2":-89.0444,"dy":0.0017,"dx":0.0017,"nx":28,"ny":28,"refTime":"2025-07-20T21:00:00:Z","depth":"2","parameterNumber":2,"parameterNumberName":"U-component_of_CURRENTS"},"data":[0,0,0,0,0,0,0,0,0,0,0,0,0,0,0,0,0,0,0,0,0,0,0,0,0,0,0,0,0,0,0,0,0,0,0,0,0,0,0,0,0,0,0,0,0,0,0,0,0,0,0,0,0,0,0,0,0,0,0.2673,0.2674,0,0.2688,0.2688,0.2688,0.2679,0.2679,0.2679,0.2679,0.2694,0.2694,0.2695,0,0,0,0,0,0,0,0,0,0,0,0,0,0.2659,0.2659,0.2673,0.2674,0.2674,0.2688,0.2688,0.2688,0.2679,0.2679,0.2679,0.2678,0.2694,0.2694,0.2695,0,0,0,0,0,0,0,0,0,0,0,0,0,0.2666,0.2659,0.2673,0.2674,0.2674,0.2689,0.2688,0.2688,0.2679,0.2679,0.2679,0.2678,0.2693,0.2694,0.2695,0.2704,0,0,0.2697,0.2698,0,0,0,0,0,0,0,0,0.2665,0.2666,0.2673,0.2674,0.2674,0.2684,0.2689,0.2695,0.2679,0.2674,0.2679,0.2678,0.2693,0.2694,0.2692,0.2705,0.2706,0.2697,0.2698,0.2698,0.2699,0,0,0,0,0,0,0,0.2665,0.2665,0.2676,0.2674,0.2674,0.2682,0.2682,0.269,0.2682,0.2674,0.2674,0.2681,0.2693,0.2692,0.2693,0.2706,0.2697,0.2698,0.2699,0.2699,0.283,0.2832,0,0,0,0,0,0,0.2669,0.2665,0.2675,0.2677,0.2673,0.2682,0.2682,0.2679,0.2682,0.2683,0.2682,0.2681,0.269,0.2692,0.2693,0.2743,0.2698,0.2699,0.27,0.2827,0.283,0.2833,0,0,0,0,0,0,0.2668,0.2669,0.2675,0.2674,0.2676,0.2683,0.2679,0.2679,0.2691,0.2688,0.2688,0.2695,0.269,0.2692,0.2742,0.2742,0.2699,0.27,0.2823,0.2828,0.2832,0.2818,0,0,0,0,0,0,0.2667,0.2668,0.2673,0.2674,0.2676,0.2698,0.268,0.268,0.2697,0.2696,0.27,0.27,0.269,0.2742,0.2743,0.2743,0.2701,0.2819,0.2825,0.283,0.2815,0.2822,0.2828,0,0,0,0,0,0.2667,0.2672,0.2672,0.2675,0.268,0.2699,0.2701,0.2703,0.2698,0.271,0.2733,0.2701,0.2778,0.2745,0.2746,0.2745,0.2817,0.2823,0.283,0.2812,0.282,0.2827,0,0,0,0,0,0,0.2669,0.2672,0.2672,0.2678,0.2696,0.2699,0.2711,0.2714,0.2738,0.2744,0.2736,0.274,0.2791,0.2788,0.2752,0.281,0.2793,0.28,0.2779,0.2787,0.2793,0.2856,0.2701,0,0,0,0,0,0.2672,0.2675,0.2686,0.2694,0.2703,0.271,0.272,0.2726,0.2746,0.2755,0.2761,0.2784,0.2818,0.2819,0.2853,0.2871,0.2894,0.288,0.2886,0.2891,0.295,0.3003,0.3019,0.2855,0.2855,0.2855,0,0,0.2675,0.2679,0.268,0.2696,0.2705,0.2721,0.2715,0.2739,0.2756,0.2755,0.2787,0.2816,0.284,0.2874,0.2893,0.2864,0.2938,0.2899,0.2902,0.2961,0.3012,0.3027,0.3041,0.286,0.2859,0.2858,0,0,0.2682,0.2687,0.2693,0.2709,0.2734,0.2742,0.2754,0.2772,0.2786,0.2831,0.2842,0.2897,0.2915,0.2942,0.2954,0.3026,0.2988,0.3011,0.306,0.3108,0.3121,0.3134,0.3117,0.3128,0.2988,0.2988,0.2988,0,0.2689,0.2691,0.2702,0.2716,0.2732,0.2753,0.2771,0.279,0.2825,0.2856,0.2851,0.2953,0.2961,0.3021,0.305,0.3037,0.3039,0.3008,0.3112,0.3126,0.3138,0.3119,0.3131,0.2988,0.2988,0.2988,0.2988,0,0.2696,0.2706,0.2715,0.2734,0.2758,0.278,0.2809,0.2843,0.2868,0.2896,0.2986,0.3025,0.3088,0.3081,0.3088,0.3173,0.3133,0.3123,0.3079,0.3153,0.3128,0.3141,0.2988,0.2988,0.2988,0.2988,0,0,0.2682,0.2712,0.2715,0.2729,0.277,0.2788,0.2836,0.289,0.2943,0.2989,0.3063,0.3137,0.3175,0.3203,0.3203,0.325,0.3308,0.3226,0.3228,0.3185,0.3368,0.3207,0.3205,0.3298,0.3302,0.3305,0.3287,0,0.2684,0.2706,0.2726,0.2757,0.2772,0.2817,0.2859,0.2919,0.2986,0.3065,0.313,0.3218,0.3205,0.3252,0.3294,0.3334,0.3355,0.3313,0.3329,0.333,0.3158,0.3221,0.2981,0.2936,0.33,0.3302,0.3304,0,0.2674,0.2695,0.2719,0.277,0.2783,0.2813,0.2909,0.2955,0.3074,0.3138,0.324,0.33,0.3397,0.3382,0.3465,0.343,0.3424,0.3435,0.3433,0.3319,0.3197,0.294,0.2946,0.3325,0.3324,0.3322,0.3321,0,0.2644,0.2686,0.2704,0.2719,0.2784,0.282,0.287,0.2984,0.3055,0.3211,0.3288,0.3397,0.3462,0.351,0.352,0.3508,0.3588,0.3554,0.3395,0.3379,0.3207,0.317,0.3635,0.3635,0.3635,0.3635,0.3635,0,0.2625,0.264,0.2694,0.2704,0.2752,0.281,0.2902,0.2978,0.3119,0.3196,0.3325,0.3396,0.3511,0.355,0.3552,0.3494,0.3596,0.3442,0.3391,0.3186,0.3149,0.3533,0.3522,0.3634,0.3634,0.3635,0.3635,0,0.2582,0.2611,0.2637,0.2707,0.2735,0.2774,0.2909,0.2984,0.3116,0.3227,0.3286,0.3426,0.3462,0.3512,0.3577,0.3505,0.3495,0.3442,0.3161,0.3078,0.3241,0.3229,0.3282,0.3277,0.3273,0.3269,0.3266,0,0.2559,0.2566,0.263,0.2659,0.2693,0.2773,0.2832,0.2972,0.305,0.3206,0.3236,0.3342,0.3348,0.3356,0.3304,0.3254,0.3364,0.2984,0.2945,0.3274,0.3218,0.3214,0.3209,0.2681,0.2673,0.2667,0.2662,0,0.2526,0.2546,0.2574,0.2626,0.2679,0.2735,0.2822,0.2868,0.3002,0.3074,0.3113,0.3141,0.3144,0.2988,0.294,0.2882,0.2979,0.285,0.3302,0.28,0.2704,0.2649,0.2665,0.2606,0.2612,0.2616,0.2619,0.2621,0.2507,0.251,0.2544,0.2578,0.263,0.2638,0.2634,0.271,0.2752,0.2772,0.2884,0.281,0.2823,0.2614,0.2498,0.2409,0.262,0.2509,0.2531,0.2558,0.2485,0.2386,0.2212,0.2215,0.2217,0.222,0.2222,0,0.2465,0.2466,0.2498,0.2488,0.2476,0.2556,0.2574,0.2523,0.2462,0.2517,0.2511,0.2279,0.2155,0.2157,0.1934,0.1899,0.1913,0.1816,0.1833,0.1889,0.1939,0.1837,0.139,0.1387,0.1384,0.1382,0,0,0.2446,0.2428,0.2413,0.2324,0.2325,0.2247,0.2222,0.2155,0.2141,0.2037,0.1974,0.2101,0.2123,0.1759,0.1687,0.15,0.1691,0.1434,0.2107,0.2188,0.2235,0.2344,0.2249,0,0,0,0,0]},{"header":{"parameterUnit":"m.s-1","parameterCategory":2,"la1":30.2991,"la2":30.254,"lo1":-89.0895,"lo2":-89.0444,"dy":0.0017,"dx":0.0017,"nx":28,"ny":28,"refTime":"2025-07-20T21:00:00:Z","depth":"2","parameterNumber":3,"parameterNumberName":"V-component_of_CURRENTS"},"data":[0,0,0,0,0,0,0,0,0,0,0,0,0,0,0,0,0,0,0,0,0,0,0,0,0,0,0,0,0,0,0,0,0,0,0,0,0,0,0,0,0,0,0,0,0,0,0,0,0,0,0,0,0,0,0,0,0,0,0.0224,0.0224,0,0.0223,0.0223,0.0223,0.0209,0.0209,0.0208,0.0208,0.02,0.02,0.02,0,0,0,0,0,0,0,0,0,0,0,0,0,0.0206,0.0206,0.0224,0.0224,0.0224,0.0223,0.0223,0.0223,0.0209,0.0209,0.0208,0.0208,0.02,0.02,0.02,0,0,0,0,0,0,0,0,0,0,0,0,0,0.021,0.0206,0.0224,0.0217,0.0217,0.0223,0.0223,0.0223,0.0209,0.0209,0.0208,0.0208,0.02,0.02,0.02,0.0211,0,0,0.0201,0.0201,0,0,0,0,0,0,0,0,0.021,0.0211,0.0218,0.0218,0.0217,0.0216,0.0213,0.0219,0.0209,0.0212,0.0208,0.0207,0.0205,0.0205,0.0206,0.0211,0.021,0.0201,0.0201,0.0201,0.0201,0,0,0,0,0,0,0,0.0209,0.021,0.0223,0.0218,0.0218,0.0211,0.0211,0.0214,0.0211,0.0212,0.0211,0.0211,0.0205,0.0205,0.0205,0.021,0.0201,0.0201,0.0201,0.0201,0.0232,0.0233,0,0,0,0,0,0,0.0211,0.021,0.0224,0.0223,0.0212,0.0212,0.0212,0.0217,0.0211,0.021,0.0211,0.021,0.0205,0.0205,0.0205,0.0235,0.0201,0.0201,0.0201,0.0232,0.0233,0.0233,0,0,0,0,0,0,0.0211,0.0212,0.0224,0.0217,0.0217,0.0213,0.0218,0.0217,0.0222,0.0211,0.0209,0.0218,0.0205,0.0205,0.0218,0.0234,0.0201,0.0201,0.0231,0.0232,0.0233,0.0284,0,0,0,0,0,0,0.021,0.0212,0.0219,0.0217,0.0218,0.0237,0.0218,0.0217,0.0222,0.0221,0.0216,0.0214,0.0205,0.0218,0.0218,0.0233,0.0201,0.023,0.0231,0.0233,0.0281,0.0286,0.0291,0,0,0,0,0,0.021,0.0223,0.0219,0.0221,0.0227,0.0238,0.0239,0.0233,0.0223,0.0234,0.023,0.0215,0.0226,0.0219,0.0219,0.0235,0.0229,0.0231,0.0232,0.0279,0.0285,0.0291,0,0,0,0,0,0,0.0218,0.0223,0.0219,0.0232,0.0239,0.0236,0.0244,0.0239,0.0244,0.0242,0.0229,0.0228,0.0245,0.0234,0.0225,0.0247,0.0224,0.0226,0.0259,0.0265,0.027,0.0302,0.0201,0,0,0,0,0,0.0223,0.0235,0.0237,0.0249,0.0253,0.025,0.0253,0.0251,0.0253,0.0254,0.0252,0.0248,0.0252,0.0254,0.0255,0.027,0.0255,0.0278,0.0283,0.0287,0.0313,0.0306,0.0313,0.0239,0.0239,0.0239,0,0,0.0229,0.0234,0.024,0.0252,0.0254,0.0275,0.0251,0.0263,0.0282,0.0253,0.0278,0.0268,0.026,0.0277,0.0283,0.027,0.0294,0.0289,0.0293,0.0318,0.0308,0.0316,0.0322,0.024,0.024,0.024,0,0,0.0252,0.0252,0.0272,0.0282,0.0292,0.0294,0.0301,0.0305,0.0308,0.0329,0.0312,0.032,0.0322,0.0324,0.0323,0.0359,0.0322,0.0347,0.0398,0.039,0.0396,0.0402,0.0366,0.0368,0.0347,0.0347,0.0347,0,0.026,0.0286,0.028,0.0304,0.0321,0.0307,0.0339,0.0342,0.0351,0.0366,0.0345,0.0366,0.0351,0.0381,0.0389,0.0373,0.0349,0.0375,0.0397,0.0402,0.0407,0.0369,0.0371,0.035,0.035,0.0349,0.0349,0,0.0301,0.0323,0.0337,0.0366,0.0382,0.0406,0.0412,0.0429,0.0428,0.0433,0.0462,0.0446,0.0462,0.0448,0.043,0.0458,0.0422,0.0404,0.0383,0.0418,0.0375,0.0376,0.0354,0.0353,0.0352,0.0351,0,0,0.0321,0.036,0.0366,0.0396,0.0419,0.0443,0.0474,0.0508,0.0547,0.0538,0.0586,0.0578,0.0567,0.0567,0.0539,0.053,0.0524,0.0484,0.0482,0.0452,0.0483,0.0447,0.0443,0.0504,0.0505,0.0506,0.043,0,0.036,0.042,0.0428,0.0493,0.0529,0.0535,0.0574,0.06,0.0616,0.0656,0.0636,0.0672,0.061,0.0627,0.0604,0.0557,0.0533,0.0545,0.0454,0.0451,0.0417,0.0446,0.0455,0.0389,0.0431,0.0431,0.0431,0,0.0401,0.0442,0.0509,0.0575,0.0592,0.0628,0.0702,0.0737,0.0775,0.0791,0.0807,0.0792,0.0788,0.0732,0.0657,0.0664,0.0584,0.0533,0.0528,0.0487,0.0418,0.0367,0.0388,0.0431,0.0431,0.0431,0.0431,0,0.0433,0.05,0.056,0.0582,0.0649,0.0688,0.073,0.0782,0.0844,0.0889,0.0935,0.0907,0.0915,0.0822,0.0695,0.0683,0.0598,0.0564,0.0452,0.0446,0.0436,0.0429,0.0516,0.0516,0.0516,0.0517,0.0517,0,0.0479,0.0528,0.0583,0.0621,0.0714,0.074,0.0848,0.0882,0.0961,0.1047,0.1012,0.1059,0.0942,0.0871,0.0735,0.0591,0.062,0.0477,0.0438,0.045,0.0445,0.0475,0.0471,0.0514,0.0514,0.0515,0.0515,0,0.0509,0.0538,0.0618,0.0698,0.0732,0.0802,0.0935,0.1022,0.1072,0.1182,0.1208,0.1189,0.1096,0.0945,0.0795,0.0658,0.0519,0.0454,0.0461,0.0425,0.0358,0.0357,0.034,0.0338,0.0337,0.0336,0.0335,0,0.053,0.0571,0.0675,0.0742,0.0785,0.0896,0.0989,0.1075,0.1176,0.1256,0.1315,0.1266,0.1228,0.0978,0.0755,0.0521,0.0493,0.0368,0.0359,0.0383,0.0346,0.0348,0.035,0.0346,0.0345,0.0344,0.0344,0,0.058,0.061,0.0683,0.0814,0.0917,0.1043,0.1173,0.1262,0.1363,0.1435,0.1486,0.1457,0.1235,0.1008,0.0698,0.0537,0.0408,0.0347,0.0388,0.0393,0.0384,0.0349,0.0352,0.0338,0.0339,0.0339,0.034,0.034,0.062,0.0676,0.0771,0.0897,0.102,0.1162,0.1265,0.1392,0.1522,0.1616,0.1586,0.1526,0.1288,0.0889,0.0621,0.0351,0.038,0.0271,0.0276,0.028,0.0298,0.0288,0.0226,0.0226,0.0226,0.0226,0.0226,0,0.0673,0.0739,0.0855,0.0994,0.1126,0.1193,0.1374,0.1465,0.1588,0.1663,0.1685,0.1418,0.1169,0.0886,0.0492,0.0259,0.0247,0.0169,0.0211,0.0219,0.0225,0.0242,0.0153,0.0152,0.0151,0.015,0,0,0.0703,0.0809,0.0859,0.1053,0.1163,0.1328,0.1428,0.1544,0.1627,0.1669,0.1635,0.1589,0.1246,0.094,0.0625,0.0393,0.0359,0.0339,0.0424,0.0521,0.053,0.0311,0.0349,0,0,0,0,0]}],[{"header":{"parameterUnit":"m.s-1","parameterCategory":2,"la1":30.2991,"la2":30.254,"lo1":-89.0895,"lo2":-89.0444,"dy":0.0017,"dx":0.0017,"nx":28,"ny":28,"refTime":"2025-07-20T21:00:00:Z","depth":"4","parameterNumber":2,"parameterNumberName":"U-component_of_CURRENTS"},"data":[0,0,0,0,0,0,0,0,0,0,0,0,0,0,0,0,0,0,0,0,0,0,0,0,0,0,0,0,0,0,0,0,0,0,0,0,0,0,0,0,0,0,0,0,0,0,0,0,0,0,0,0,0,0,0,0,0,0,0.1655,0.1656,0,0.1672,0.1672,0.1672,0.1711,0.1712,0.1713,0.1714,0.1753,0.1753,0.1753,0,0,0,0,0,0,0,0,0,0,0,0,0,0.1627,0.1627,0.1655,0.1656,0.1656,0.1672,0.1672,0.1672,0.1711,0.1712,0.1714,0.1715,0.1753,0.1753,0.1753,0,0,0,0,0,0,0,0,0,0,0,0,0,0.1639,0.1627,0.1655,0.1679,0.1682,0.1672,0.1672,0.1672,0.1711,0.1712,0.1714,0.1715,0.1753,0.1753,0.1753,0.1723,0,0,0.1754,0.1754,0,0,0,0,0,0,0,0,0.1638,0.164,0.1675,0.1678,0.168,0.1693,0.1676,0.1691,0.171,0.1697,0.1714,0.1716,0.1736,0.1737,0.1733,0.1725,0.1727,0.1754,0.1754,0.1754,0.1754,0,0,0,0,0,0,0,0.1637,0.1639,0.166,0.1676,0.1679,0.1679,0.1682,0.1679,0.1706,0.1699,0.1702,0.1707,0.1737,0.1733,0.1735,0.1727,0.1754,0.1754,0.1754,0.1754,0.1789,0.179,0,0,0,0,0,0,0.164,0.1638,0.1659,0.166,0.1665,0.1678,0.1682,0.1686,0.1706,0.1711,0.1706,0.1709,0.1732,0.1734,0.1736,0.1801,0.1754,0.1754,0.1754,0.1788,0.1789,0.179,0,0,0,0,0,0,0.1639,0.1641,0.1658,0.1652,0.1654,0.1678,0.1681,0.1685,0.1718,0.1711,0.1717,0.1739,0.1733,0.1736,0.1764,0.1799,0.1754,0.1754,0.1787,0.1789,0.179,0.1866,0,0,0,0,0,0,0.1638,0.1641,0.1661,0.1652,0.1655,0.1674,0.168,0.1684,0.1718,0.1723,0.1741,0.1744,0.1735,0.1764,0.1764,0.1798,0.1754,0.1786,0.1788,0.1789,0.1862,0.1869,0.1876,0,0,0,0,0,0.1637,0.1651,0.1661,0.1665,0.1676,0.1674,0.1676,0.1696,0.1718,0.1732,0.175,0.1746,0.1774,0.1764,0.1764,0.18,0.1785,0.1787,0.1789,0.1859,0.1868,0.1876,0,0,0,0,0,0,0.165,0.1656,0.1667,0.1684,0.1691,0.1683,0.1706,0.1715,0.1738,0.176,0.1754,0.1757,0.1798,0.1781,0.1771,0.1813,0.178,0.1782,0.1833,0.1841,0.1848,0.1855,0.1754,0,0,0,0,0,0.166,0.1677,0.1676,0.1695,0.1705,0.1713,0.1724,0.1735,0.1746,0.176,0.1771,0.1785,0.1797,0.1808,0.1813,0.183,0.1831,0.1852,0.1859,0.1865,0.187,0.1916,0.1928,0.1797,0.1797,0.1797,0,0,0.1671,0.1679,0.169,0.1701,0.1714,0.1721,0.1724,0.1751,0.1765,0.1759,0.1799,0.1814,0.1808,0.1836,0.1851,0.1832,0.19,0.1868,0.1873,0.1875,0.192,0.1933,0.1944,0.1798,0.1798,0.1798,0,0,0.1688,0.1712,0.1728,0.1735,0.1759,0.1757,0.1772,0.1784,0.1807,0.1834,0.1842,0.1878,0.1888,0.1895,0.1897,0.194,0.1939,0.1947,0.1986,0.2031,0.2043,0.2053,0.2061,0.2071,0.1946,0.1946,0.1946,0,0.1707,0.1717,0.1733,0.1746,0.1756,0.1776,0.1788,0.1804,0.1826,0.1849,0.1862,0.1914,0.1915,0.195,0.1968,0.1959,0.1974,0.1958,0.2042,0.2053,0.2062,0.2067,0.2078,0.195,0.1949,0.1949,0.1949,0,0.1715,0.1739,0.1752,0.1773,0.1786,0.1802,0.1818,0.1847,0.1882,0.1902,0.1967,0.198,0.2014,0.2021,0.2009,0.2074,0.2059,0.2052,0.2026,0.208,0.2081,0.2091,0.1955,0.1954,0.1953,0.1952,0,0,0.1712,0.175,0.1759,0.1769,0.1802,0.1803,0.1843,0.1872,0.1912,0.1961,0.2017,0.2054,0.2092,0.2096,0.2101,0.2135,0.221,0.2128,0.2129,0.2143,0.2297,0.2127,0.2121,0.2233,0.2235,0.2237,0.2268,0,0.1715,0.1741,0.1759,0.1781,0.179,0.182,0.1852,0.1892,0.1941,0.2003,0.2054,0.2116,0.2111,0.215,0.2189,0.2214,0.2241,0.2201,0.2236,0.2236,0.2086,0.2129,0.2245,0.2275,0.2278,0.2279,0.228,0,0.1704,0.1724,0.1753,0.1783,0.1793,0.1815,0.187,0.1904,0.1996,0.2046,0.2129,0.2176,0.2251,0.2239,0.2318,0.2301,0.2306,0.2313,0.2315,0.2136,0.2084,0.2211,0.2297,0.2296,0.2295,0.2294,0.2293,0,0.167,0.1708,0.1732,0.1742,0.1789,0.1817,0.1851,0.1932,0.1982,0.2096,0.2157,0.2249,0.2314,0.2356,0.2379,0.2369,0.2448,0.2431,0.2274,0.2261,0.2373,0.2362,0.2477,0.2477,0.2477,0.2477,0.2477,0,0.1637,0.1656,0.1725,0.1733,0.1768,0.1815,0.1875,0.1926,0.2033,0.2098,0.2195,0.2251,0.2356,0.2407,0.2411,0.2367,0.2478,0.2282,0.2263,0.24,0.2392,0.2379,0.2367,0.2478,0.2478,0.2478,0.2478,0,0.1587,0.1636,0.1659,0.1725,0.1754,0.1783,0.1881,0.1918,0.2038,0.2126,0.2174,0.2292,0.2348,0.2403,0.2465,0.2387,0.2372,0.2322,0.2454,0.2442,0.2144,0.2136,0.2149,0.2144,0.2139,0.2135,0.2132,0,0.1556,0.1573,0.1652,0.1667,0.17,0.1762,0.1801,0.1916,0.1959,0.2122,0.2146,0.2256,0.231,0.2259,0.2325,0.2307,0.2274,0.2242,0.2195,0.2133,0.2114,0.2113,0.2112,0.2124,0.2123,0.2122,0.212,0,0.1495,0.1546,0.1569,0.161,0.1647,0.1677,0.1745,0.1775,0.1904,0.2033,0.2071,0.2093,0.2136,0.2159,0.2155,0.214,0.2255,0.2192,0.2201,0.2156,0.2102,0.2088,0.2092,0.2104,0.2106,0.2108,0.2109,0,0.1459,0.1457,0.1503,0.1519,0.1568,0.1566,0.1614,0.1653,0.172,0.1901,0.191,0.2013,0.2128,0.2071,0.2073,0.204,0.2001,0.1924,0.1946,0.1965,0.1885,0.1788,0.168,0,0,0,0,0,0.1409,0.1389,0.1397,0.1399,0.1445,0.1476,0.1558,0.1611,0.1753,0.1733,0.1819,0.1849,0.1851,0.1902,0.1826,0.1969,0.1999,0.1869,0.1921,0.2012,0.2031,0.1952,0,0,0,0,0,0,0.1365,0.1379,0.136,0.1305,0.1295,0.1326,0.1379,0.1468,0.1463,0.1617,0.1629,0.1736,0.1764,0.1884,0.1797,0.1807,0.1797,0.1935,0.193,0.2002,0.2019,0.2034,0.1959,0,0,0,0,0]},{"header":{"parameterUnit":"m.s-1","parameterCategory":2,"la1":30.2991,"la2":30.254,"lo1":-89.0895,"lo2":-89.0444,"dy":0.0017,"dx":0.0017,"nx":28,"ny":28,"refTime":"2025-07-20T21:00:00:Z","depth":"4","parameterNumber":3,"parameterNumberName":"V-component_of_CURRENTS"},"data":[0,0,0,0,0,0,0,0,0,0,0,0,0,0,0,0,0,0,0,0,0,0,0,0,0,0,0,0,0,0,0,0,0,0,0,0,0,0,0,0,0,0,0,0,0,0,0,0,0,0,0,0,0,0,0,0,0,0,0.013,0.013,0,0.013,0.013,0.0131,0.0126,0.0126,0.0126,0.0126,0.0124,0.0125,0.0125,0,0,0,0,0,0,0,0,0,0,0,0,0,0.0117,0.0117,0.013,0.013,0.013,0.013,0.013,0.0131,0.0126,0.0126,0.0126,0.0126,0.0124,0.0125,0.0125,0,0,0,0,0,0,0,0,0,0,0,0,0,0.0121,0.0117,0.013,0.0128,0.0127,0.013,0.013,0.0131,0.0126,0.0126,0.0126,0.0126,0.0124,0.0125,0.0125,0.013,0,0,0.0125,0.0125,0,0,0,0,0,0,0,0,0.0121,0.0121,0.0128,0.0128,0.0128,0.0128,0.0125,0.013,0.0127,0.0127,0.0126,0.0126,0.0125,0.0125,0.0126,0.013,0.013,0.0125,0.0125,0.0125,0.0125,0,0,0,0,0,0,0,0.012,0.0121,0.013,0.0128,0.0128,0.0124,0.0124,0.0126,0.0128,0.0127,0.0127,0.0126,0.0125,0.0126,0.0126,0.013,0.0125,0.0125,0.0125,0.0125,0.0134,0.0134,0,0,0,0,0,0,0.012,0.0121,0.013,0.013,0.0123,0.0124,0.0125,0.0128,0.0128,0.0127,0.0127,0.0126,0.0126,0.0126,0.0126,0.0147,0.0125,0.0125,0.0125,0.0134,0.0134,0.0134,0,0,0,0,0,0,0.012,0.0121,0.013,0.0125,0.0126,0.0125,0.0129,0.0128,0.0134,0.0127,0.0127,0.0133,0.0126,0.0126,0.0133,0.0146,0.0125,0.0126,0.0134,0.0134,0.0134,0.0178,0,0,0,0,0,0,0.012,0.0121,0.0127,0.0125,0.0126,0.0138,0.0129,0.0129,0.0133,0.0133,0.0132,0.0132,0.0126,0.0133,0.0134,0.0146,0.0126,0.0133,0.0134,0.0134,0.0176,0.018,0.0183,0,0,0,0,0,0.012,0.0129,0.0127,0.0129,0.0133,0.0138,0.0139,0.0137,0.0134,0.014,0.0139,0.0132,0.0135,0.0134,0.0134,0.0147,0.0133,0.0134,0.0134,0.0175,0.0179,0.0183,0,0,0,0,0,0,0.0126,0.0129,0.0128,0.0137,0.014,0.0138,0.0144,0.0142,0.0146,0.0146,0.0139,0.0138,0.0146,0.0139,0.0138,0.0147,0.0131,0.0131,0.0162,0.0166,0.0169,0.0177,0.0126,0,0,0,0,0,0.0129,0.0138,0.0138,0.0147,0.0149,0.0148,0.015,0.0149,0.0151,0.0152,0.0152,0.0149,0.0147,0.0151,0.0146,0.0159,0.0137,0.0164,0.0167,0.017,0.0175,0.0151,0.0153,0.0135,0.0135,0.0135,0,0,0.0134,0.0137,0.0142,0.0149,0.0151,0.0164,0.0149,0.0157,0.017,0.0152,0.0171,0.0159,0.015,0.016,0.0163,0.0159,0.0162,0.017,0.0173,0.0177,0.0152,0.0154,0.0155,0.0135,0.0135,0.0135,0,0,0.0149,0.0151,0.0165,0.0171,0.0177,0.0178,0.0182,0.0185,0.0188,0.0201,0.0188,0.0187,0.019,0.0186,0.0184,0.0202,0.0175,0.0197,0.0228,0.0205,0.0206,0.0207,0.0177,0.0175,0.0204,0.0204,0.0204,0,0.0155,0.0174,0.0169,0.0186,0.0198,0.0187,0.0209,0.021,0.0215,0.0224,0.0212,0.0212,0.0203,0.0215,0.0218,0.0211,0.0188,0.0217,0.021,0.021,0.021,0.0179,0.0176,0.0206,0.0206,0.0205,0.0205,0,0.0182,0.02,0.0209,0.023,0.024,0.0256,0.0259,0.0269,0.027,0.0271,0.0279,0.0261,0.0264,0.0256,0.0244,0.0246,0.0225,0.0213,0.0203,0.0215,0.0181,0.0177,0.0209,0.0208,0.0208,0.0207,0,0,0.0195,0.0224,0.0229,0.0252,0.0267,0.0282,0.0303,0.0323,0.0345,0.0334,0.0355,0.0342,0.0327,0.0322,0.0302,0.0282,0.026,0.0252,0.025,0.0227,0.0201,0.0192,0.0187,0.0245,0.0245,0.0245,0.0174,0,0.0222,0.0265,0.0271,0.0318,0.0343,0.0347,0.0374,0.0389,0.0392,0.0406,0.038,0.0389,0.0354,0.0357,0.0329,0.028,0.0253,0.0279,0.0188,0.0186,0.0181,0.0184,0.0244,0.0171,0.0171,0.017,0.0169,0,0.0248,0.0279,0.0328,0.0377,0.039,0.0415,0.0461,0.0485,0.0494,0.0496,0.0488,0.0461,0.0438,0.04,0.032,0.0338,0.0274,0.0226,0.0222,0.0199,0.0171,0.0156,0.0162,0.0163,0.0163,0.0164,0.0164,0,0.027,0.032,0.0365,0.038,0.043,0.0459,0.049,0.0515,0.055,0.0553,0.0565,0.0524,0.0509,0.0427,0.0326,0.0324,0.0223,0.0209,0.0138,0.0136,0.0145,0.0144,0.0145,0.0145,0.0145,0.0145,0.0145,0,0.0298,0.0336,0.0381,0.0409,0.0479,0.0499,0.057,0.0588,0.0622,0.0665,0.0616,0.062,0.0514,0.0442,0.0342,0.0229,0.0234,0.0143,0.012,0.0163,0.0166,0.0141,0.0142,0.0142,0.0143,0.0144,0.0144,0,0.0315,0.0341,0.04,0.0462,0.0491,0.0543,0.0632,0.0679,0.0699,0.0747,0.0751,0.0696,0.0606,0.0484,0.0348,0.026,0.0147,0.0101,0.0152,0.0133,0.0069,0.0073,0.0024,0.0023,0.0023,0.0022,0.0022,0,0.0326,0.0357,0.0441,0.0487,0.052,0.0603,0.0666,0.0718,0.0764,0.0791,0.0807,0.0739,0.0684,0.0486,0.0351,0.0162,0.0129,0.0061,0.0068,0.0076,0.0058,0.0063,0.0067,0.0021,0.002,0.002,0.002,0,0.0351,0.0378,0.0432,0.0525,0.0597,0.0683,0.0765,0.0804,0.0861,0.0876,0.0859,0.076,0.0654,0.0495,0.0345,0.0206,0.0104,0.0054,0.0054,0.006,0.0071,0.0055,0.006,0.0018,0.0018,0.0018,0.0018,0,0.0371,0.0408,0.0476,0.0561,0.0653,0.0731,0.0779,0.0833,0.0882,0.0903,0.0894,0.0781,0.0721,0.0517,0.0378,0.0245,0.021,0.0154,0.0149,0.015,0.0205,0.0238,0.0219,0,0,0,0,0,0.039,0.0431,0.0506,0.0597,0.0688,0.0742,0.0832,0.0869,0.0917,0.0913,0.091,0.0813,0.0621,0.0533,0.04,0.0353,0.0175,0.0189,0.0106,0.0005,0.0007,0.0049,0,0,0,0,0,0,0.04,0.0469,0.0502,0.0612,0.0678,0.0779,0.0839,0.0871,0.087,0.0892,0.0794,0.0764,0.0576,0.0699,0.0393,0.0353,0.0277,0.0107,0.0103,0.0003,0.0006,0.0008,0.0052,0,0,0,0,0]}]]